Aurora 1

operational
NORAD ID: 2876 Int'l Des: 1967-065 Owner: ONR/RICE Country: US
MEOCIRCULARPOLAR

About Aurora 1

Description loading...

Live Position

Loading 3D Globe...

Upcoming Passes

Altitude History

Altitude vs Time

uPlot chart will show altitude changes over time

Two-Line Element Set

1 2876U 67065B 26061.12984916 .00000003 00000-0 86188-3 0 9999
2 2876 89.9886 313.3779 0070279 206.7553 152.9648 8.36560364380657
Epoch: Mar 2, 2026 • Age: 39 hours

Current Status

Altitude 3813.5 km
Velocity 6.28 km/s
Sub-Earth Point -34.45°S, 103.03°E
Type other

Large Constellations

Loading constellations...